Location: Kanawha
(42.9377°N, 93.7933°W)
Time: 04:19:29
(UTC+00:00)

Daily predictions for brighter satellites

Satellite Brightness Start Highest point End
(mag) Time Altitude Azimuth Time Altitude Azimuth Time Altitude Azimuth
Cosmos 1461 4.0 02:27:27 10° NNW 02:31:19 33° NE 02:35:00 10° ESE
Cosmos 1934 Rocket 4.5 02:26:05 10° NNW 02:32:07 65° W 02:38:14 10° S
Cosmos 1315 Rocket 2.9 02:30:36 10° N 02:34:45 81° E 02:38:50 10° SSE
ATLAS CENTAUR R/B 3.5 02:32:52 10° N 02:36:01 19° NE 02:39:17 10° E
Cosmos 2237 4.3 02:30:42 10° S 02:36:14 55° ESE 02:41:47 10° NNE
Terra 4.0 02:35:55 10° E 02:37:42 12° ENE 02:39:30 10° NE
Cosmos 1741 Rocket 4.5 02:33:17 10° N 02:38:23 48° ENE 02:43:28 10° SE
Cosmos 1844 Rocket 3.5 02:33:21 10° N 02:38:39 39° ENE 02:43:55 10° SE
Cosmos 1626 3.9 02:36:28 10° SE 02:38:47 16° E 02:41:07 10° NE
Cosmos 1707 2.7 02:36:02 10° S 02:39:54 82° E 02:43:49 10° N
NOSS 8 (A) 4.4 02:36:58 10° SW 02:40:31 78° NW 02:43:29 10° NNE
Meteor 1-21 4.3 02:34:56 10° S 02:40:36 87° W 02:46:15 10° N
Cosmos 1025 Rocket 4.4 02:39:00 10° SE 02:42:21 22° E 02:45:42 10° NE
ERS-2 3.7 02:43:00 10° N 02:46:26 40° WNW 02:49:51 10° SW
Ariane Rocket 3.4 02:41:26 10° S 02:46:30 67° WSW 02:51:36 10° NNW
SPOT 3 Rocket 3.6 02:42:46 10° SSE 02:47:52 67° ENE 02:53:02 10° N
SL-4 R/B4.202:49:24ESE02:49:24ESE02:44:17S
CZ-2C R/B 4.2 02:44:26 10° NNE 02:49:01 44° E 02:53:32 10° S
CENTAUR R/B 3.9 02:43:30 10° WSW 02:49:13 45° NW 02:56:01 10° NNE
Cosmos 2263 Rocket 3.5 02:47:47 10° NW 02:52:59 37° WSW 02:58:08 10° S
Lacrosse 5 2.7 02:48:51 10° WNW 02:53:39 44° SW 02:58:25 10° SSE
Cosmos 1758 3.4 02:51:23 10° N 02:55:23 82° W 02:59:19 10° S
FALCON 9 DEB 4.0 02:52:22 10° WSW 02:55:44 53° NNW 02:59:05 10° NE
Lacrosse 5 rocket 0.9 02:52:58 10° SW 02:56:40 70° SE 03:00:17 10° NE
MetOp-B 4.2 02:52:38 10° SSE 02:57:55 68° ENE 03:03:16 10° N
ATLAS 2A CENTAUR R/B 4.3 02:47:28 10° SW 02:58:52 19° S 03:03:32 12° SSE
In-Cosmos 22 4.0 02:53:46 10° S 02:59:02 82° E 03:04:22 10° NNE
USA 245 4.4 02:58:44 12° SSE 03:03:15 56° ENE 03:08:58 10° N
Cosmos 1975 Rocket 3.0 03:00:24 10° S 03:04:43 72° E 03:09:07 10° NNE
Landsat 7 3.9 03:00:06 10° SSE 03:04:51 86° WSW 03:09:38 10° NNW
Cosmos 1727 Rocket 4.1 03:00:04 10° S 03:06:23 87° W 03:12:42 10° N
BREEZE-M DEB (TANK) 3.2 03:02:55 10° NW 03:06:47 40° NNE 03:08:34 13° E
Cosmos 1110 Rocket 3.9 03:04:38 10° S 03:09:46 68° ESE 03:14:57 10° NNE
Resurs 01 Rocket 2.1 03:07:16 10° S 03:11:36 58° W 03:15:58 10° NNW
SL-14 R/B 4.4 03:12:10 16° SE 03:14:33 29° E 03:18:03 10° NNE
KORONAS-FOTON 3.7 03:12:49 10° S 03:16:37 90° WSW 03:20:25 10° N
USA 81 4.4 03:13:53 10° N 03:19:06 64° W 03:24:18 10° S
Cosmos 1953 2.3 03:16:15 10° N 03:20:20 81° E 03:23:32 16° S
Cosmos 2333 Rocket 2.5 03:17:49 10° S 03:23:20 49° ESE 03:28:50 10° NE
Cosmos 1674 2.8 03:20:01 10° SSW 03:23:42 73° W 03:27:25 10° N
Cosmos 1726 4.5 03:21:54 10° NW 03:24:39 20° W 03:27:23 10° SW
Cosmos 2219 Rocket 2.6 03:19:40 10° S 03:24:59 43° ESE 03:30:19 10° NE
BREEZE-M DEB (TANK) 1.2 03:24:52 10° SW 03:27:11 75° SSE 03:30:58 10° ENE
Cosmos 1802 Rocket 4.1 03:22:19 10° N 03:28:36 66° E 03:33:33 17° SSE
Meteor 2-11 Rocket 4.4 03:26:38 10° N 03:32:46 78° E 03:37:36 17° SSE
Cosmos 1459 Rocket 3.9 03:27:04 10° N 03:33:09 87° E 03:38:14 15° S
Cosmos 1844 3.7 03:27:33 10° NNW 03:33:10 83° ENE 03:37:07 20° SSE
FALCON 9 DEB 2.7 03:30:33 10° SW 03:33:39 80° SE 03:36:48 10° NE
Cosmos 1300 3.4 03:37:01 10° N 03:40:35 37° ENE 03:42:05 26° SE
Cosmos 2237 Rocket 3.6 03:44:17 17° ESE 03:45:18 18° E 03:48:59 10° ENE
Geosat 4.1 03:42:57 23° SE 03:46:06 71° ENE 03:51:08 10° NNW
ERS-1 Rocket 3.0 03:44:13 23° SSE 03:47:25 75° ENE 03:52:28 10° N
Cosmos 1544 Rocket 3.6 03:43:37 10° N 03:48:05 81° W 03:50:53 22° S
Cosmos 1340 2.5 03:46:01 23° S 03:48:17 78° E 03:52:04 10° NNE
ARIANE 5 R/B 2.7 03:45:36 22° S 03:48:28 80° WSW 03:52:59 10° NNW
Cosmos 2360 Rocket 3.1 03:43:25 10° SW 03:48:53 49° WNW 03:54:22 10° NNE
Spot 2 Rocket 3.6 03:46:38 19° S 03:50:18 71° WSW 03:55:23 10° NNW
FALCON 9 DEB 3.8 03:47:31 10° WSW 03:50:32 50° NNW 03:53:34 10° NE
Cosmos 1455 Rocket 4.1 03:48:18 10° NNW 03:52:31 43° W 03:56:08 13° SSW
Cosmos 2322 Rocket 4.3 03:47:52 10° WSW 03:52:47 29° NW 03:57:44 10° N
Meteor 1-24 Rocket 4.0 03:49:56 24° SSE 03:52:47 46° E 03:58:00 10° NNE
FALCON 9 DEB 3.5 03:54:25 10° WSW 03:57:29 57° NNW 04:00:34 10° NE
SL-8 R/B 3.8 03:56:05 10° WNW 04:00:49 60° SSW 04:02:54 31° SE
FALCON 9 DEB 4.1 03:57:51 10° WSW 04:00:50 44° NNW 04:03:50 10° NE
Cosmos 1864 Rocket 4.4 03:54:41 10° N 04:00:54 86° E 04:04:49 24° S
ATLAS 3B R/B 2.7 03:55:54 10° SW 04:02:26 83° NW 04:09:13 10° NE
Cosmos 2123 Rocket 4.1 04:03:19 14° SSW 04:08:48 79° W 04:15:10 10° N
Cosmos 2061 Rocket 4.1 04:02:28 10° N 04:08:56 80° W 04:13:09 23° S
Uosat 12 SS-18 rocket 4.0 04:06:19 15° SSW 04:09:54 77° ESE 04:14:48 10° NE
Cosmos 1461 4.4 04:06:47 10° WNW 04:10:12 25° WSW 04:11:53 19° SSW
Cosmos 389 Rocket 3.5 04:09:12 10° N 04:12:16 30° ENE 04:12:39 29° E
Cosmos 1626 3.8 04:10:27 10° SW 04:13:43 30° WNW 04:17:02 10° NNW
Cosmos 2322 4.1 04:09:06 10° SW 04:14:42 65° WNW 04:20:21 10° NNE
Terra 1.8 04:12:29 32° S 04:14:44 86° WSW 04:19:32 10° NNW
Cosmos 1302 Rocket 4.2 04:09:51 10° SSW 04:15:06 71° WNW 04:20:21 10° NNE
ATLAS CENTAUR R/B 1.7 04:10:54 10° NW 04:15:15 65° WSW 04:16:58 36° S
COSMOS 2428 2.7 04:10:07 12° SSW 04:15:31 89° ESE 04:21:18 10° NNE
Cosmos 2233 Rocket 4.0 04:10:17 10° N 04:16:27 72° E 04:19:39 30° SSE
SL-12 R/B (Aux Motor) 4.4 04:15:50 45° SSW 04:16:30 61° SSE 04:22:06 10° ENE
Cosmos 1346 Rocket 3.1 04:17:00 42° SE 04:17:46 49° E 04:21:40 10° NNE
SPOT 5 3.4 04:15:59 25° S 04:18:54 57° W 04:23:44 10° NNW
Cosmos 2278 Rocket 3.0 04:14:20 10° NNW 04:19:44 42° ENE 04:22:35 25° ESE
Cosmos 1536 Rocket 4.0 04:17:04 22° SSW 04:19:53 62° W 04:24:19 10° N
Cosmos 1844 Rocket 3.9 04:17:25 10° NW 04:22:26 33° WSW 04:25:49 18° SSW
Cosmos 1508 4.5 04:25:31 76° SSW 04:25:43 87° W 04:28:57 10° N
SL-4 R/B 1.8 04:23:58 16° SW 04:27:14 62° SE 04:31:04 10° ENE
Cosmos 2228 3.2 04:23:28 10° N 04:27:52 60° E 04:29:00 43° SE
USA 215 3.4 04:22:22 10° ENE 04:28:39 48° SE 04:32:55 20° SSW
Lacrosse 5 rocket 3.9 04:33:22 10° WNW 04:36:05 19° NNW 04:38:46 10° NNE
Cosmos 1867 3.5 04:34:50 10° NNW 04:40:21 84° ENE 04:42:25 40° SE
Cosmos 1943 Rocket 4.4 04:44:50 10° N 04:48:16 16° NE 04:51:41 10° E
Cosmos 1607 4.3 04:42:22 10° NNW 04:48:43 58° NE 04:51:55 29° ESE
Iridium 2 3.6 04:49:17 62° E 04:49:23 62° E 04:53:06 10° N
Meteor 2-10 Rocket 3.4 04:44:32 10° NNW 04:49:36 76° W 04:51:13 43° S
Cosmos 968 Rocket 3.8 04:46:49 10° NNW 04:51:50 55° WSW 04:53:28 38° SSW
Cosmos 1486 Rocket 4.0 04:48:54 10° NNW 04:54:07 72° WSW 04:55:40 45° S
Cosmos 1980 3.6 04:53:23 38° S 04:55:38 75° ESE 05:01:20 10° NNE
Cosmos 1992 Rocket 4.2 04:57:08 28° SW 04:59:51 68° WNW 05:05:05 10° NNE
USA 267 4.3 04:55:39 10° E 05:01:42 41° NNE 05:07:44 10° NW
Okean 1-7 Rocket 4.1 05:02:36 43° ESE 05:02:53 44° E 05:07:06 10° NNE
Cosmos 1464 Rocket 4.2 04:58:50 10° N 05:05:10 63° E 05:07:30 39° SE
Cosmos 1455 2.0 05:02:29 10° N 05:06:19 78° E 05:06:21 78° E
Cosmos 2333 Rocket 4.1 05:02:58 10° WSW 05:07:50 28° NW 05:12:44 10° N
Cosmos 2219 Rocket 3.9 05:04:04 10° WSW 05:09:03 31° NW 05:14:04 10° N
ATLAS CENTAUR R/B 2.9 05:08:15 46° S 05:09:31 58° ESE 05:19:54 10° NE
Cosmos 1354 Rocket 4.0 05:04:29 10° NNW 05:09:52 78° ENE 05:11:17 49° SE
Spot 4 3.8 05:10:00 53° SE 05:11:00 72° ENE 05:15:46 10° N
Cosmos 2058 Rocket 3.0 05:09:29 10° N 05:13:56 72° E 05:14:26 64° SE
Cosmos 1726 Rocket 3.7 05:10:52 10° NNW 05:15:18 66° W 05:15:58 56° SW
Meteor 2-1 Rocket 4.2 05:11:22 10° N 05:16:54 70° E 05:18:25 48° SE
SL-16 R/B 2.6 05:25:28 41° SE 05:26:07 43° ESE 05:31:27 10° NE
Cosmos 2237 Rocket 2.4 05:26:03 31° SW 05:28:45 65° WNW 05:34:22 10° NNE
Cosmos 1184 Rocket 3.7 05:29:27 46° NW 05:29:27 46° NW 05:32:07 10° N
SJ 16-02 2.9 05:26:06 10° N 05:29:49 26° ENE 05:30:54 24° E
Cosmos 1892 Rocket 4.2 05:32:32 40° WSW 05:33:28 47° WNW 05:37:47 10° N
GP-B 4.3 05:30:03 10° NNE 05:33:55 28° E 05:34:10 28° E
Cosmos 2369 Rocket 4.2 05:35:26 10° N 05:39:48 22° NE 05:44:08 10° E
Cosmos 2034 Rocket 3.9 05:34:36 10° N 05:40:48 83° E 05:42:38 49° SSE
ALOS 2 2.4 05:43:59 78° SSE 05:44:16 88° ENE 05:48:41 10° NNW
USA 229 DEB 4.2 05:44:47 35° SE 05:45:25 35° ESE 05:51:22 10° NE
USA 229 4.2 05:44:54 34° SE 05:45:32 35° ESE 05:51:28 10° NE
COBE Rocket 4.0 05:47:21 57° SSW 05:48:10 68° W 05:53:06 10° NNW
GEOS 3 Rocket 3.6 05:47:15 56° S 05:48:20 73° SW 05:53:42 10° NW
SAR-Lupe-2 4.2 05:49:06 10° NNE 05:51:57 49° NE 05:51:57 49° NE
NOSS 3-1 (C) 3.1 05:53:14 56° SSE 05:53:52 60° ESE 05:59:48 10° NE
BREEZE-M DEB (TANK) 4.4 05:57:01 37° SE 05:58:15 39° ESE 06:14:13 10° ENE
Cosmos 1626 Rocket 3.6 06:01:20 68° WSW 06:01:38 71° W 06:06:05 10° N
Aureole 3 4.1 05:58:34 10° N 06:02:26 48° E 06:02:49 46° E
Cosmos 2278 Rocket 3.3 05:58:48 10° NW 06:03:36 29° WSW 06:04:25 28° WSW
NOSS 2-3 (E) 3.9 06:04:41 51° E 06:04:41 51° E 06:08:36 10° NE
Cosmos 1441 Rocket 4.4 06:04:25 33° W 06:04:35 33° WNW 06:08:05 10° N
NOSS 3-1 (A) 3.7 06:04:54 40° ESE 06:05:06 41° ESE 06:10:39 10° NE
Cosmos 1892 4.2 06:05:52 27° ENE 06:05:52 27° ENE 06:08:48 10° NNE
Cosmos 2297 3.8 05:59:56 10° NNW 06:05:35 72° ENE 06:07:10 48° SE
SL-4 R/B 3.6 06:03:21 10° W 06:06:59 32° NNW 06:10:23 10° NE
USA 32 3.9 06:02:03 10° N 06:07:20 85° E 06:08:14 62° SSE
Tsikada Rocket 3.9 06:05:58 50° SSW 06:07:44 86° W 06:13:56 10° N
Nimbus 7 Rocket 4.4 06:02:10 10° NNE 06:08:16 89° W 06:10:03 49° SSW
Cosmos 1602 Rocket 3.4 06:09:18 79° SW 06:09:31 83° W 06:14:01 10° N
USA 215 3.8 06:05:21 10° NE 06:11:43 57° NNW 06:18:05 10° WSW
Meteor 1-4 Rocket 3.5 06:08:38 10° NNW 06:11:12 41° NW 06:11:12 41° NW
Cosmos 1763 Rocket 4.3 06:15:44 34° ESE 06:16:04 34° ESE 06:20:40 10° NE
Cosmos 1758 Rocket 3.5 06:17:12 71° ESE 06:17:17 71° E 06:21:42 10° NNE
Meteor 1-11 4.1 06:17:12 56° SSW 06:18:26 85° W 06:24:03 10° N
Meteor 1-27 4.3 06:17:12 10° N 06:22:44 66° ENE 06:24:10 48° SE
Thor Agena Rocket 3.4 06:17:44 10° NNE 06:23:00 89° ESE 06:23:55 62° SSW
Cosmos-2242 3.1 06:20:42 10° N 06:25:06 68° E 06:25:20 66° ESE
Resurs 1-4 Rocket 4.3 06:23:32 10° ENE 06:25:54 13° E 06:27:37 11° ESE
In-Cosmos 22 Rocket 4.5 06:26:02 46° SE 06:27:09 55° E 06:32:30 10° NNE
Cosmos 1825 3.8 06:32:05 26° E 06:32:05 26° E 06:34:59 10° NNE
Cosmos 1943 Rocket 2.0 06:27:15 10° NNW 06:32:47 88° WSW 06:33:59 57° SSE
PSLV R/B 3.4 06:29:43 10° NNE 06:34:06 81° ESE 06:34:18 78° SSE
X-37B 3.4 06:37:56 13° ENE 06:37:56 13° ENE 06:38:18 10° ENE
Cosmos 1408 3.3 06:36:19 47° ENE 06:36:19 47° ENE 06:39:24 10° NNE
Transit 2A Rocket 4.3 06:37:32 85° ESE 06:37:32 85° ESE 06:41:58 10° NNE
Cosmos 1943 3.8 06:38:48 38° SE 06:39:42 41° ESE 06:44:57 10° NE
Cosmos 405 Rocket 3.5 06:44:03 40° ENE 06:44:03 40° ENE 06:47:07 10° NNE
USA 267 3.1 06:41:13 33° SE 06:44:24 76° SW 06:50:59 10° NW
NOSS 2-3 (D) 3.6 06:44:37 61° W 06:45:03 67° NW 06:49:44 10° NNE
CZ-2D R/B 3.9 06:41:57 10° NE 06:45:33 19° E 06:47:12 16° ESE
Cosmos 1812 Rocket 4.4 06:43:59 10° NNW 06:47:58 38° W 06:47:58 38° W
Cosmos 1603 4.0 06:47:29 45° SE 06:48:34 51° ESE 06:54:02 10° NE
Cosmos 2058 4.0 06:49:06 33° E 06:49:17 33° E 06:52:59 10° NNE
Cosmos 1356 4.1 06:51:13 52° NNE 06:51:13 52° NNE 06:53:53 10° NNE
Cosmos 2221 3.9 06:50:39 10° NNE 06:54:29 31° ENE 06:55:40 26° ESE
Cosmos 540 Rocket 4.0 06:54:25 39° SE 06:55:13 42° ESE 07:00:02 10° NNE
Cosmos 2279 Rocket 3.9 06:51:03 10° N 06:57:19 88° W 06:59:19 46° S
DELTA 2 R/B (1) 3.9 06:59:52 45° SE 06:59:52 45° SE 07:04:32 10° E
Cosmos 1634 Rocket 4.3 06:53:41 10° NNW 06:59:49 53° W 07:01:35 41° SW
USA 307 4.3 07:02:25 27° ESE 07:02:25 27° ESE 07:05:08 10° ENE
Cosmos 990 Rocket 3.9 06:56:15 10° NNW 07:01:28 87° ENE 07:02:40 54° SSE
NOSS 2-3 (C) 4.4 07:00:52 37° W 07:01:59 46° NW 07:06:36 10° NNE
BREEZE-M DEB (TANK) 3.8 06:57:58 10° W 07:02:02 30° NNW 07:04:15 10° NE
Cosmos 841 Rocket 4.0 07:03:21 39° SE 07:04:20 44° ESE 07:09:13 10° NNE
YAOGAN 11 4.4 07:05:57 49° SE 07:06:56 63° ENE 07:11:23 10° N
SJ 16-02 2.6 07:04:33 10° NW 07:07:51 28° W 07:07:51 28° W
SL-16 R/B 3.6 07:07:20 19° WSW 07:10:21 31° NW 07:15:21 10° N
Cosmos 1656 Rocket 4.0 07:06:51 10° NNW 07:12:32 65° ENE 07:15:31 28° SE
Cosmos 1825 Rocket 4.3 07:14:08 39° W 07:14:39 40° WNW 07:18:52 10° N
Cosmos 1937 Rocket 3.7 07:10:14 10° NNW 07:15:33 68° ENE 07:17:48 35° SE
Cosmos 1898 Rocket 3.4 07:10:26 10° NNW 07:15:41 88° WSW 07:17:07 50° SSE
USA 308 3.7 07:17:46 38° ESE 07:17:46 38° ESE 07:21:16 10° ENE
Helios 1B rocket 4.2 07:15:12 10° NE 07:18:24 22° E 07:19:18 20° ESE
USA 290 4.2 07:22:19 21° E 07:22:19 21° E 07:24:27 10° NE
Cosmos 1606 3.9 07:19:32 10° N 07:23:06 36° ENE 07:24:03 31° ESE
Cosmos 2369 Rocket 2.2 07:18:40 10° NNW 07:24:21 67° WSW 07:25:57 46° S
Helios 1A 2.8 07:26:31 66° SSE 07:27:04 90° WSW 07:31:18 10° NNW
CZ-4 R/B 3.7 07:24:35 10° NNE 07:29:17 81° WNW 07:30:18 55° SSW
NOSS 2-2 (E) 3.7 07:30:04 43° E 07:30:04 43° E 07:33:10 10° NE
Exosat Rocket 4.1 07:27:42 35° SW 07:30:21 63° WNW 07:35:40 10° NNE
Nadezhda 4 Rocket 3.9 07:29:04 41° S 07:31:24 88° E 07:37:33 10° N
ATLAS 5 CENTAUR R/B 2.0 07:34:05 39° SE 07:34:14 40° ESE 07:38:12 10° NE
Cosmos 1814 Rocket 4.3 07:32:43 40° SSE 07:34:16 55° ESE 07:39:19 10° NNE
USA 305 2.9 07:34:41 61° SSE 07:34:53 62° SE 07:39:06 10° ENE
USA 229 DEB 4.3 07:32:11 23° WSW 07:36:06 49° NW 07:42:45 10° NNE
USA 229 4.2 07:32:19 23° WSW 07:36:12 50° NW 07:42:51 10° NNE
Cosmos 2263 4.1 07:33:01 10° NNW 07:38:41 70° WSW 07:40:42 40° S
Lacrosse 4 Rocket 3.0 07:36:58 10° NNW 07:40:42 33° NE 07:44:21 10° ESE
NOSS 2-2 (C) 3.4 07:43:32 48° ESE 07:43:32 48° ESE 07:46:53 10° NE
Cosmos 1437 Rocket 2.8 07:39:54 10° NNW 07:43:42 56° W 07:43:43 56° W
Cosmos 1570 Rocket 4.1 07:43:24 42° S 07:45:08 69° ESE 07:50:20 10° NNE
Aureole 3 Rocket 3.6 07:41:49 10° N 07:45:52 62° E 07:48:34 28° SSE
SL-4 R/B 4.4 07:44:25 10° NW 07:47:19 21° N 07:50:05 10° NE
FALCON 9 DEB 4.4 07:45:22 10° NW 07:48:38 42° NNE 07:51:51 10° ESE
Meteor 2-2 Rocket 4.5 07:43:13 10° NNW 07:49:10 60° W 07:51:26 37° SSW
Cosmos 372 Rocket 4.1 07:44:23 10° NNW 07:49:40 77° ENE 07:52:43 26° SSE
Cosmos 1932 4.4 07:48:05 10° NW 07:54:12 61° WSW 07:57:20 29° S
NOSS 3-1 (A) 4.5 07:52:18 17° W 07:55:59 37° NW 08:01:51 10° NNE
USA 306 2.8 07:56:16 51° SW 07:57:18 89° SSE 08:01:34 10° NE
Cosmos 2098 Rocket 3.6 07:56:35 38° SW 07:58:25 59° W 08:02:55 10° N
Cosmos 921 Rocket 3.0 07:59:46 48° SW 08:00:44 66° WNW 08:04:55 10° NNE
Cosmos 2208 Rocket 4.1 07:58:36 37° S 08:00:49 77° ESE 08:06:18 10° NNE
Cosmos 1842 Rocket 3.8 07:56:49 10° NNW 08:01:02 50° W 08:01:49 43° SW
ADEOS Rocket 3.9 07:54:29 10° SE 08:01:34 55° ENE 08:08:01 10° N
Cosmos 1437 2.7 07:58:51 10° N 08:01:23 65° NNE 08:01:23 65° NNE
SL-16 R/B 2.5 08:00:13 24° SSE 08:04:15 87° WSW 08:10:28 10° NNW
Resurs 1-4 Rocket 2.1 08:01:00 10° NNE 08:06:20 82° WNW 08:08:42 35° SSW
Cosmos 1825 3.9 08:06:51 20° W 08:07:15 20° WNW 08:10:07 10° NNW
X-37B 1.0 08:10:13 24° WNW 08:11:57 63° N 08:15:06 10° E
Cosmos 2151 2.9 08:11:14 38° S 08:12:45 77° E 08:16:58 10° N
Cosmos 1092 Rocket 3.9 08:09:41 31° SSW 08:12:47 75° W 08:18:56 10° N
MOZ.5/SAFIR/RUBIN 5/SL-8 4.4 08:12:42 33° SW 08:13:43 38° W 08:18:09 10° NNW
CZ-4C R/B 3.8 08:12:05 13° SE 08:14:44 19° ESE 08:18:25 10° ENE
Cosmos 1943 Rocket 4.2 08:13:56 10° WNW 08:15:28 11° W 08:15:28 11° W
Cosmos 1242 Rocket 3.1 08:12:17 10° NNW 08:15:41 39° W 08:15:50 39° WSW
Meteor 2-19 Rocket 4.5 08:12:44 31° SSW 08:15:51 70° W 08:21:59 10° N
ADEOS II 2.5 08:12:13 10° NNE 08:17:25 59° E 08:20:33 24° S
Cosmos 1076 Rocket 3.8 08:16:52 38° SW 08:18:04 50° WNW 08:22:13 10° N
NPP 3.6 08:13:47 10° NNE 08:19:11 80° WNW 08:21:57 30° SSW
Cosmos 1943 4.4 08:20:36 18° WSW 08:23:50 31° NW 08:28:51 10° N
Meteor 2-3 Rocket 3.9 08:20:40 24° S 08:24:08 71° E 08:29:42 10° NNE
CZ-2D R/B 2.3 08:20:51 10° N 08:25:57 56° WNW 08:28:31 28° SW
USA 267 4.5 08:28:31 19° WSW 08:28:31 19° WSW 08:32:35 10° WNW
AQUA 3.8 08:23:40 10° N 08:28:26 77° WNW 08:30:49 30° SSW
IDEFIX/ARIANE 42P 3.5 08:26:19 10° NNE 08:31:17 42° E 08:35:30 14° SSE
GPS 2-04 Rocket1 3.7 08:32:08 28° S 08:32:08 28° S 08:35:13 10° ESE
Cosmos 2221 3.9 08:28:33 10° NW 08:31:50 22° W 08:32:29 21° W
ERBS 2.8 08:35:36 36° S 08:36:19 43° SE 08:39:25 10° ENE
Cosmos 1271 Rocket 4.1 08:36:47 10° N 08:40:17 36° ENE 08:43:46 10° SE
Cosmos 1782 3.3 08:36:21 10° N 08:40:19 59° E 08:43:51 13° SSE
USA 307 3.6 08:38:30 20° W 08:41:14 48° NNW 08:45:21 10° NE
NOSS 2-2 (D) 4.0 08:39:47 24° W 08:41:17 37° NW 08:44:45 10° NNE
Cosmos 1809 Rocket 4.5 08:39:11 19° S 08:43:42 89° E 08:49:55 10° N
Cosmos 1633 3.9 08:43:38 22° W 08:44:26 23° WNW 08:47:21 10° NNW
DELTA 2 R/B (1) 3.5 08:40:36 14° W 08:45:21 63° S 08:50:50 10° ESE
Meteor 1-26 Rocket 4.3 08:40:24 10° N 08:46:17 90° E 08:52:18 10° S
CZ-4C R/B 4.3 08:43:47 10° SE 08:47:02 40° ENE 08:50:19 10° N
CBERS-1 4.2 08:43:45 10° NNE 08:48:54 70° ESE 08:52:55 17° S
IRS-1D 3.5 08:44:24 10° NNE 08:49:33 88° E 08:53:07 20° SSW
FALCON 9 DEB 4.3 08:46:58 10° NW 08:49:56 40° NNE 08:52:52 10° ESE
Helios 1B rocket 3.5 08:50:03 10° N 08:53:40 31° WNW 08:55:36 21° WSW
USA 290 4.2 08:55:04 16° W 08:56:14 18° WNW 08:58:35 10° NNW
USA 308 4.0 08:53:50 13° W 08:57:15 39° NNW 09:01:17 10° NE
Tianhe-1 3.1 08:58:01 15° SSE 08:58:30 15° SSE 09:00:28 10° ESE
Cosmos 1328 Rocket 3.8 08:55:53 10° N 09:00:14 69° E 09:04:36 10° SSE
Cosmos 2292 Rocket 3.4 09:03:15 26° SW 09:04:20 36° W 09:07:07 10° N
Meteor 1-28 Rocket 3.3 09:05:33 16° S 09:08:22 55° W 09:12:07 10° NNW
Cosmos 1933 4.2 09:04:40 10° NNW 09:08:23 34° W 09:10:38 19° SW
BREEZE-M R/B 3.3 09:06:01 12° W 09:09:14 61° NNW 09:16:06 10° ENE
Cosmos 1553 Rocket 4.1 09:04:06 10° NNW 09:10:15 59° W 09:16:14 10° S
MSX 4.0 09:06:51 10° NNE 09:12:38 73° ESE 09:18:21 10° S
Meteor 1-29 4.1 09:10:04 10° N 09:13:02 28° WNW 09:14:47 18° WSW
Meteor 2-21 Rocket 4.5 09:09:18 12° S 09:15:01 82° W 09:21:15 10° N
USA 305 4.4 09:11:16 10° W 09:15:04 31° NNW 09:18:53 10° NE
SeaSat 1 2.6 09:11:04 10° NNE 09:16:00 70° ESE 09:20:26 13° SSW
S3M 4.0 09:10:23 10° N 09:16:32 78° W 09:22:45 10° S
Cosmos 2298 Rocket 4.5 09:12:05 10° NNW 09:17:06 42° WSW 09:22:06 10° S
ATLAS 5 CENTAUR R/B 3.2 09:15:43 10° W 09:19:00 23° NW 09:22:37 10° NNE
Lacrosse 4 Rocket 2.5 09:15:58 10° WNW 09:19:10 22° WSW 09:21:02 16° SW
Cosmos 1151 Rocket 3.2 09:18:52 10° NNW 09:22:59 50° W 09:27:04 10° SSW
USA 281 3.2 09:16:58 10° SSE 09:23:31 80° WSW 09:30:09 10° NNW
FALCON 9 DEB 4.1 09:22:30 10° WNW 09:25:22 26° SW 09:28:14 10° SSE
SL-4 R/B 3.4 09:24:16 10° NW 09:27:37 35° NNE 09:30:49 10° E
Meteor 2-6 Rocket 4.3 09:24:06 10° N 09:30:02 87° W 09:35:45 10° S
Cosmos 1766 Rocket 4.2 09:27:48 14° SW 09:31:17 40° WNW 09:35:31 10° N
Cosmos 1515 Rocket 3.7 09:27:16 10° N 09:31:44 84° E 09:36:10 10° S
Alouette 2 Rocket 3.9 09:29:49 10° NNW 09:33:13 40° W 09:37:20 10° SSW
Cosmos 1833 Rocket 3.3 09:27:59 10° S 09:33:28 55° ESE 09:38:59 10° NNE
Cosmos 1408 Rocket 3.6 09:29:08 10° SSW 09:33:35 76° W 09:38:04 10° N
Cosmos 1862 3.3 09:30:48 10° SSW 09:34:45 69° W 09:38:48 10° N
Cosmos 1125 Rocket 4.1 09:30:43 10° NW 09:35:34 38° WSW 09:40:25 10° S
Lacrosse 5 rocket 2.2 09:33:17 10° NW 09:36:49 48° NE 09:40:26 10° ESE
IRS-P3 4.2 09:32:01 10° N 09:37:21 76° WNW 09:42:39 10° SSW
CZ-4B R/B 3.6 09:34:32 10° NNE 09:39:51 87° ESE 09:45:02 10° SSW
ARIANE 5 R/B 2.5 09:37:32 10° NNE 09:42:34 84° WNW 09:47:34 10° SSW
BREEZE-M DEB (TANK) 3.7 09:38:51 11° SW 09:42:46 33° SSE 09:45:25 10° E
NOSS 3-2 (A) 4.2 09:35:33 10° NW 09:43:14 86° ENE 09:51:53 10° SE
Meteor 1-27 Rocket 4.4 09:38:35 10° N 09:44:05 58° ENE 09:49:30 10° SSE
Resurs 1-4 Rocket 4.2 09:43:14 10° NNW 09:45:17 12° WNW 09:47:20 10° W
COSMOS 2441 4.5 09:41:29 10° N 09:46:16 65° WNW 09:51:01 10° SSW
ADEOS Rocket 4.2 09:41:01 10° SSW 09:47:13 29° W 09:53:01 10° NW
X-37B 0.9 09:45:31 10° W 09:48:34 43° SSW 09:51:35 10° SE
SL-16 R/B 4.3 09:45:51 10° WSW 09:48:40 13° W 09:51:29 10° WNW
deb Kosmos-1763 4.2 09:49:25 10° SW 09:52:52 53° WNW 09:56:20 10° N
Cosmos 2266 Rocket 4.3 09:48:11 10° SSW 09:54:04 49° WNW 09:59:56 10° N
ADEOS II 3.7 09:52:56 10° NNW 09:56:39 20° WNW 10:00:20 10° WSW
Cosmos 2082 Rocket 3.3 09:51:44 10° S 09:56:58 42° ESE 10:02:14 10° NE
FALCON 9 DEB 2.9 09:55:41 10° WNW 09:58:46 57° SW 10:01:49 10° SE
ASTEX 1 4.3 09:57:01 10° SSW 10:01:21 30° W 10:05:40 10° NNW
CZ-4C R/B 2.4 09:57:39 10° SW 10:02:26 58° NW 10:08:13 10° NNE
CZ-2D R/B 3.6 10:01:48 10° N 10:05:56 61° WNW 10:09:55 10° SSW
